SES-1

Last updated on Thu Nov 21 2024 00:02:41 GMT+0000 (Coordinated Universal Time)

1 36516U 10016A 24324.78808708 -.00000113 00000+0 00000+0 0 9994 2 36516 0.0140 338.0692 0002944 269.0862 354.8729 1.00272006 53274
UTC large
Height (km)
Speed (km/s)
/
Latitude / Longitude
Inclination (degrees)
Orbital Period (minutes)
Azimuth
Elevation
Range (km)
Doppler Factor

Next 0 passes for location: London (51.5072 / 0.1276)

Sorry there are no passes over London.